This demonstration page uses our WeatherBlox Daily Observations layout. Learn more.

Left ArrowRight Arrow

41.55636, -103.73856

Hourly Observations for November 28, 2021

Temp ( °F °C ) Dew Point ( °F °C ) Humidity (%) Winds ( mph kmh ) Pressure ( in mb ) Visibility ( mi km ) Precip ( " mm )
12:58 am 00:58 Clear 36 2.1 25 -4.1 64 64 SW 16 26 30.23 1024 10 16 0.00 0.00
1:58 am 01:58 Clear 38 3.3 25 -4 59 59 SW 22 35 30.22 1023 10 16 0.00 0.00
2:58 am 02:58 Clear 36 2.2 25 -4.1 63 63 WSW 10 17 30.21 1023 10 16 0.00 0.00
3:58 am 03:58 Clear 38 3.3 25 -4.1 59 59 W 12 19 30.20 1023 10 16 0.00 0.00
4:58 am 04:58 Clear 37 2.6 24 -4.3 61 61 W 14 22 30.20 1023 10 16 0.00 0.00
5:58 am 05:58 Clear 36 2.2 24 -4.4 62 62 WSW 12 19 30.22 1024 10 16 0.00 0.00
6:58 am 06:58 Clear 31 -0.3 23 -5 71 71 SW 8 13 30.22 1024 10 16 0.00 0.00
7:58 am 07:58 Sunny 39 3.9 25 -4 57 57 W 13 20 30.22 1024 10 16 0.00 0.00
8:58 am 08:58 Sunny 47 8.1 27 -2.8 46 46 W 12 19 30.20 1023 10 16 0.00 0.00
9:58 am 09:58 Sunny 55 12.5 26 -3.3 33 33 WNW 20 31 30.17 1022 10 16 0.00 0.00
10:58 am 10:58 Sunny 59 14.8 26 -3.4 28 28 NW 26 43 30.14 1021 10 16 0.00 0.00
11:58 am 11:58 Sunny 59 15 26 -3.2 29 29 NW 21 33 30.10 1019 10 16 0.00 0.00
12:58 pm 12:58 Sunny 61 16.2 27 -2.9 27 27 NW 21 33 30.09 1019 10 16 0.00 0.00
1:58 pm 13:58 Sunny 62 16.8 26 -3.4 25 25 WNW 21 33 30.07 1018 10 16 0.00 0.00
2:58 pm 14:58 Sunny 62 16.9 25 -3.7 24 24 NW 16 26 30.07 1018 10 16 0.00 0.00
3:58 pm 15:58 Sunny 59 15 25 -3.8 27 27 WNW 22 35 30.07 1018 10 16 0.00 0.00
4:58 pm 16:58 Clear 52 11 25 -4.1 35 35 W 12 19 30.11 1020 10 16 0.00 0.00
5:58 pm 17:58 Clear 45 7 25 -3.9 46 46 WSW 9 15 30.14 1021 10 16 0.00 0.00
6:58 pm 18:58 Clear 47 8.5 26 -3.6 43 43 W 12 19 30.15 1021 10 16 0.00 0.00
7:58 pm 19:58 Clear 46 7.9 27 -3 46 46 W 15 24 30.13 1020 10 16 0.00 0.00
8:58 pm 20:58 Clear 49 9.5 26 -3.1 41 41 W 10 17 30.09 1019 10 16 0.00 0.00
9:58 pm 21:58 Clear 50 10.1 26 -3.1 40 40 W 16 26 30.07 1018 10 16 0.00 0.00
10:58 pm 22:58 Clear 52 11.2 26 -3.3 36 36 WNW 17 28 30.04 1017 10 16 0.00 0.00
11:58 pm 23:58 Clear 53 11.5 26 -3.2 36 36 WNW 16 26 30.04 1017 10 16 0.00 0.00

Powered by AerisWeather